HP11 MKBS-MTCH

Flight info

Callsign HP11
Flight time 2h 1m
Altitude 3500
Route 182435N0765322W 194105N0721402W
Aircraft DA40/L-SG/C

Departure

Time 2026-04-24 20:43
Airport Ian Fleming International Airport (MKBS)

Arrival

Time 2026-04-24 22:45
Airport Cap Haitien International Airport (MTCH)
Time Latitude Longitude Altitude Speed Heading
2026-04-24 20:31 18.40464 -76.96953 61 ft 0 kts 176°
2026-04-24 20:39 18.40462 -76.96953 63 ft 3 kts 189°
2026-04-24 20:40 18.40410 -76.96989 66 ft 15 kts 256°
2026-04-24 20:40 18.40398 -76.97158 68 ft 25 kts 266°
2026-04-24 20:40 18.40386 -76.97321 68 ft 20 kts 267°
2026-04-24 20:40 18.40351 -76.97440 69 ft 15 kts 262°
2026-04-24 20:41 18.40344 -76.97541 69 ft 13 kts 266°
2026-04-24 20:41 18.40341 -76.97619 72 ft 9 kts 281°
2026-04-24 20:41 18.40348 -76.97661 72 ft 8 kts 243°
2026-04-24 20:41 18.40374 -76.97676 72 ft 12 kts 100°
2026-04-24 20:42 18.40365 -76.97612 71 ft 0 kts 83°
2026-04-24 20:42 18.40369 -76.97559 73 ft 29 kts 88°
2026-04-24 20:42 18.40401 -76.97168 75 ft 74 kts 85°
2026-04-24 20:43 18.40441 -76.96633 290 ft 74 kts 80°
2026-04-24 20:43 18.40478 -76.96083 499 ft 73 kts 84°
2026-04-24 20:43 18.40502 -76.95505 602 ft 86 kts 86°
2026-04-24 20:43 18.40530 -76.94921 843 ft 81 kts 85°
2026-04-24 20:44 18.40546 -76.94294 1035 ft 86 kts 84°
2026-04-24 20:44 18.40579 -76.93655 1209 ft 90 kts 86°
2026-04-24 20:44 18.40626 -76.93018 1434 ft 86 kts 83°
2026-04-24 20:44 18.40674 -76.92382 1601 ft 89 kts 87°
2026-04-24 20:45 18.40709 -76.91705 1752 ft 94 kts 82°
2026-04-24 20:45 18.40787 -76.91012 1919 ft 97 kts 86°
2026-04-24 20:45 18.40839 -76.90313 2101 ft 98 kts 87°
2026-04-24 20:45 18.40861 -76.89589 2344 ft 96 kts 91°
2026-04-24 20:46 18.40990 -76.88870 2552 ft 105 kts 69°
2026-04-24 20:46 18.41242 -76.88147 2726 ft 107 kts 72°
2026-04-24 20:46 18.41495 -76.87357 2758 ft 121 kts 73°
2026-04-24 20:46 18.41762 -76.86505 2791 ft 132 kts 72°
2026-04-24 20:47 18.42054 -76.85579 2812 ft 136 kts 73°
2026-04-24 20:47 18.42354 -76.84629 2839 ft 137 kts 74°
2026-04-24 20:47 18.42662 -76.83677 2860 ft 138 kts 73°
2026-04-24 20:47 18.42975 -76.82720 2881 ft 138 kts 73°
2026-04-24 20:48 18.43286 -76.81760 2913 ft 139 kts 73°
2026-04-24 20:48 18.43602 -76.80795 2933 ft 140 kts 73°
2026-04-24 20:48 18.43916 -76.79828 2956 ft 139 kts 73°
2026-04-24 20:48 18.44226 -76.78861 2978 ft 140 kts 73°
2026-04-24 20:49 18.44536 -76.77890 3012 ft 140 kts 73°
2026-04-24 20:49 18.44846 -76.76917 3035 ft 140 kts 73°
2026-04-24 20:49 18.45155 -76.75939 3058 ft 141 kts 73°
2026-04-24 20:49 18.45464 -76.74965 3083 ft 140 kts 73°
2026-04-24 20:50 18.45769 -76.73994 3109 ft 139 kts 73°
2026-04-24 20:50 18.46075 -76.73028 3130 ft 139 kts 73°
2026-04-24 20:50 18.46377 -76.72068 3153 ft 137 kts 73°
2026-04-24 20:50 18.46677 -76.71110 3177 ft 138 kts 73°
2026-04-24 20:51 18.46984 -76.70155 3198 ft 138 kts 73°
2026-04-24 20:51 18.47289 -76.69201 3225 ft 138 kts 73°
2026-04-24 20:51 18.47599 -76.68243 3249 ft 138 kts 73°
2026-04-24 20:51 18.47910 -76.67283 3276 ft 139 kts 73°
2026-04-24 20:52 18.48215 -76.66332 3297 ft 139 kts 73°
2026-04-24 20:52 18.48526 -76.65370 3319 ft 139 kts 73°
2026-04-24 20:52 18.48834 -76.64404 3344 ft 139 kts 73°
2026-04-24 20:52 18.49143 -76.63434 3370 ft 140 kts 73°
2026-04-24 20:53 18.49450 -76.62461 3394 ft 139 kts 73°
2026-04-24 20:53 18.49754 -76.61491 3418 ft 139 kts 73°
2026-04-24 20:53 18.50057 -76.60524 3442 ft 139 kts 73°
2026-04-24 20:53 18.50360 -76.59553 3466 ft 140 kts 73°
2026-04-24 20:54 18.50663 -76.58584 3477 ft 140 kts 73°
2026-04-24 20:54 18.50971 -76.57608 3486 ft 141 kts 73°
2026-04-24 20:54 18.51279 -76.56620 3480 ft 142 kts 73°
2026-04-24 20:54 18.51590 -76.55628 3485 ft 143 kts 73°
2026-04-24 20:55 18.51904 -76.54636 3480 ft 143 kts 73°
2026-04-24 20:55 18.52218 -76.53642 3477 ft 143 kts 73°
2026-04-24 20:55 18.52427 -76.52982 3487 ft 143 kts 73°
2026-04-24 20:55 18.52846 -76.51660 3487 ft 143 kts 73°
2026-04-24 20:56 18.53162 -76.50665 3486 ft 143 kts 73°
2026-04-24 20:56 18.53480 -76.49669 3486 ft 143 kts 73°
2026-04-24 20:56 18.53691 -76.48997 3489 ft 143 kts 73°
2026-04-24 20:56 18.54109 -76.47673 3487 ft 144 kts 73°
2026-04-24 20:57 18.54318 -76.47012 3487 ft 143 kts 73°
2026-04-24 20:57 18.54633 -76.46012 3490 ft 144 kts 73°
2026-04-24 20:57 18.54946 -76.45009 3492 ft 144 kts 73°
2026-04-24 20:57 18.55258 -76.44006 3483 ft 144 kts 73°
2026-04-24 20:58 18.55568 -76.43012 3490 ft 143 kts 73°
2026-04-24 20:58 18.55879 -76.42019 3481 ft 143 kts 73°
2026-04-24 20:58 18.56191 -76.41023 3479 ft 142 kts 73°
2026-04-24 20:58 18.56501 -76.40029 3486 ft 143 kts 73°
2026-04-24 20:59 18.56810 -76.39036 3475 ft 142 kts 73°
2026-04-24 20:59 18.57117 -76.38046 3485 ft 142 kts 73°
2026-04-24 20:59 18.57427 -76.37053 3483 ft 143 kts 73°
2026-04-24 20:59 18.57742 -76.36052 3488 ft 144 kts 73°
2026-04-24 21:00 18.58058 -76.35046 3488 ft 145 kts 73°
2026-04-24 21:00 18.58371 -76.34035 3491 ft 146 kts 73°
2026-04-24 21:00 18.58685 -76.33018 3489 ft 146 kts 73°
2026-04-24 21:00 18.58999 -76.31999 3487 ft 146 kts 73°
2026-04-24 21:01 18.59314 -76.30984 3490 ft 146 kts 73°
2026-04-24 21:01 18.59631 -76.29970 3485 ft 145 kts 73°
2026-04-24 21:01 18.59945 -76.28958 3491 ft 145 kts 72°
2026-04-24 21:01 18.60249 -76.27954 3486 ft 142 kts 73°
2026-04-24 21:02 18.60555 -76.26957 3480 ft 143 kts 73°
2026-04-24 21:02 18.60864 -76.25958 3489 ft 143 kts 73°
2026-04-24 21:02 18.61174 -76.24958 3489 ft 144 kts 74°
2026-04-24 21:02 18.61485 -76.23966 3493 ft 145 kts 73°
2026-04-24 21:03 18.61801 -76.22959 3494 ft 145 kts 73°
2026-04-24 21:03 18.62116 -76.21951 3492 ft 145 kts 73°
2026-04-24 21:03 18.62429 -76.20941 3491 ft 145 kts 73°
2026-04-24 21:03 18.62749 -76.19919 3499 ft 147 kts 73°
2026-04-24 21:04 18.63066 -76.18910 3501 ft 146 kts 73°
2026-04-24 21:04 18.63383 -76.17881 3495 ft 145 kts 73°
2026-04-24 21:04 18.63688 -76.16881 3492 ft 144 kts 73°
2026-04-24 21:04 18.64000 -76.15869 3494 ft 143 kts 73°
2026-04-24 21:05 18.64305 -76.14875 3495 ft 144 kts 72°
2026-04-24 21:05 18.64618 -76.13866 3493 ft 145 kts 73°
2026-04-24 21:05 18.64925 -76.12860 3498 ft 144 kts 74°
2026-04-24 21:05 18.65235 -76.11856 3495 ft 145 kts 73°
2026-04-24 21:06 18.65542 -76.10846 3499 ft 144 kts 73°
2026-04-24 21:06 18.65851 -76.09849 3506 ft 145 kts 73°
2026-04-24 21:06 18.66172 -76.08831 3506 ft 147 kts 72°
2026-04-24 21:06 18.66489 -76.07821 3508 ft 146 kts 73°
2026-04-24 21:07 18.66811 -76.06802 3505 ft 147 kts 73°
2026-04-24 21:07 18.67134 -76.05775 3497 ft 146 kts 73°
2026-04-24 21:07 18.67449 -76.04772 3506 ft 145 kts 73°
2026-04-24 21:07 18.67768 -76.03762 3503 ft 145 kts 73°
2026-04-24 21:08 18.68087 -76.02750 3505 ft 145 kts 72°
2026-04-24 21:08 18.68405 -76.01732 3503 ft 143 kts 73°
2026-04-24 21:08 18.68718 -76.00740 3499 ft 144 kts 72°
2026-04-24 21:08 18.69025 -75.99743 3505 ft 142 kts 73°
2026-04-24 21:09 18.69330 -75.98762 3505 ft 143 kts 73°
2026-04-24 21:09 18.69647 -75.97758 3506 ft 143 kts 73°
2026-04-24 21:09 18.69962 -75.96762 3502 ft 143 kts 73°
2026-04-24 21:09 18.70272 -75.95767 3507 ft 144 kts 72°
2026-04-24 21:10 18.70590 -75.94747 3498 ft 146 kts 73°
2026-04-24 21:10 18.70909 -75.93740 3512 ft 145 kts 73°
2026-04-24 21:10 18.71230 -75.92741 3507 ft 145 kts 73°
2026-04-24 21:10 18.71551 -75.91729 3499 ft 145 kts 73°
2026-04-24 21:11 18.71871 -75.90718 3510 ft 144 kts 73°
2026-04-24 21:11 18.72185 -75.89719 3512 ft 144 kts 73°
2026-04-24 21:11 18.72497 -75.88719 3501 ft 145 kts 73°
2026-04-24 21:11 18.72814 -75.87703 3513 ft 145 kts 73°
2026-04-24 21:12 18.73138 -75.86680 3508 ft 146 kts 72°
2026-04-24 21:12 18.73457 -75.85677 3510 ft 146 kts 73°
2026-04-24 21:12 18.73777 -75.84666 3510 ft 145 kts 72°
2026-04-24 21:12 18.74092 -75.83660 3509 ft 144 kts 72°
2026-04-24 21:13 18.74410 -75.82659 3509 ft 144 kts 72°
2026-04-24 21:13 18.74724 -75.81651 3506 ft 145 kts 73°
2026-04-24 21:13 18.75045 -75.80642 3511 ft 145 kts 73°
2026-04-24 21:13 18.75369 -75.79631 3509 ft 146 kts 73°
2026-04-24 21:14 18.75696 -75.78620 3515 ft 145 kts 73°
2026-04-24 21:14 18.76023 -75.77615 3513 ft 145 kts 73°
2026-04-24 21:14 18.76347 -75.76609 3513 ft 144 kts 72°
2026-04-24 21:14 18.76658 -75.75615 3536 ft 142 kts 73°
2026-04-24 21:15 18.76967 -75.74634 3562 ft 141 kts 73°
2026-04-24 21:15 18.77279 -75.73652 3585 ft 141 kts 73°
2026-04-24 21:15 18.77590 -75.72675 3608 ft 141 kts 73°
2026-04-24 21:15 18.77905 -75.71700 3635 ft 140 kts 73°
2026-04-24 21:16 18.78220 -75.70725 3658 ft 140 kts 73°
2026-04-24 21:16 18.78528 -75.69764 3684 ft 140 kts 72°
2026-04-24 21:16 18.78834 -75.68793 3707 ft 139 kts 73°
2026-04-24 21:16 18.79146 -75.67816 3726 ft 140 kts 72°
2026-04-24 21:17 18.79451 -75.66846 3753 ft 140 kts 72°
2026-04-24 21:17 18.79765 -75.65868 3783 ft 141 kts 73°
2026-04-24 21:17 18.80082 -75.64881 3805 ft 142 kts 73°
2026-04-24 21:17 18.80401 -75.63892 3829 ft 142 kts 72°
2026-04-24 21:18 18.80719 -75.62895 3856 ft 143 kts 72°
2026-04-24 21:18 18.81039 -75.61902 3878 ft 143 kts 72°
2026-04-24 21:18 18.81358 -75.60912 3902 ft 142 kts 73°
2026-04-24 21:18 18.81677 -75.59924 3928 ft 142 kts 73°
2026-04-24 21:19 18.81995 -75.58937 3953 ft 142 kts 73°
2026-04-24 21:19 18.82310 -75.57952 3978 ft 141 kts 73°
2026-04-24 21:19 18.82620 -75.56988 4001 ft 140 kts 72°
2026-04-24 21:19 18.82928 -75.56017 4030 ft 140 kts 73°
2026-04-24 21:20 18.83557 -75.54064 4078 ft 141 kts 72°
2026-04-24 21:20 18.83872 -75.53087 4101 ft 140 kts 72°
2026-04-24 21:20 18.84186 -75.52109 4123 ft 140 kts 73°
2026-04-24 21:21 18.84500 -75.51131 4150 ft 141 kts 72°
2026-04-24 21:21 18.84812 -75.50158 4170 ft 142 kts 72°
2026-04-24 21:21 18.85131 -75.49171 4200 ft 142 kts 72°
2026-04-24 21:21 18.85448 -75.48182 4223 ft 142 kts 73°
2026-04-24 21:22 18.85765 -75.47193 4245 ft 142 kts 72°
2026-04-24 21:22 18.86081 -75.46205 4265 ft 142 kts 73°
2026-04-24 21:22 18.86397 -75.45216 4303 ft 142 kts 72°
2026-04-24 21:22 18.86712 -75.44226 4328 ft 142 kts 72°
2026-04-24 21:23 18.87027 -75.43236 4351 ft 142 kts 73°
2026-04-24 21:23 18.87340 -75.42247 4374 ft 142 kts 73°
2026-04-24 21:23 18.87653 -75.41261 4401 ft 142 kts 72°
2026-04-24 21:23 18.87962 -75.40276 4425 ft 141 kts 73°
2026-04-24 21:24 18.88275 -75.39292 4448 ft 142 kts 73°
2026-04-24 21:24 18.88592 -75.38305 4473 ft 142 kts 72°
2026-04-24 21:24 18.88904 -75.37330 4499 ft 142 kts 72°
2026-04-24 21:24 18.89218 -75.36343 4520 ft 142 kts 72°
2026-04-24 21:25 18.89534 -75.35357 4549 ft 142 kts 72°
2026-04-24 21:25 18.89848 -75.34373 4574 ft 141 kts 73°
2026-04-24 21:25 18.90165 -75.33388 4596 ft 141 kts 72°
2026-04-24 21:25 18.90479 -75.32406 4623 ft 141 kts 72°
2026-04-24 21:26 18.90796 -75.31419 4649 ft 142 kts 72°
2026-04-24 21:26 18.91108 -75.30441 4671 ft 142 kts 72°
2026-04-24 21:26 18.91418 -75.29453 4699 ft 142 kts 72°
2026-04-24 21:26 18.91727 -75.28464 4725 ft 142 kts 72°
2026-04-24 21:27 18.92037 -75.27476 4747 ft 142 kts 72°
2026-04-24 21:27 18.92349 -75.26489 4770 ft 141 kts 72°
2026-04-24 21:27 18.92659 -75.25504 4794 ft 142 kts 72°
2026-04-24 21:27 18.92968 -75.24518 4819 ft 141 kts 72°
2026-04-24 21:28 18.93279 -75.23531 4839 ft 141 kts 72°
2026-04-24 21:28 18.93588 -75.22544 4865 ft 142 kts 72°
2026-04-24 21:28 18.93902 -75.21558 4891 ft 142 kts 72°
2026-04-24 21:28 18.94219 -75.20569 4913 ft 143 kts 72°
2026-04-24 21:29 18.94536 -75.19576 4940 ft 143 kts 72°
2026-04-24 21:29 18.94853 -75.18573 4962 ft 144 kts 72°
2026-04-24 21:29 18.95164 -75.17584 4992 ft 144 kts 72°
2026-04-24 21:29 18.95486 -75.16578 5015 ft 144 kts 73°
2026-04-24 21:30 18.95804 -75.15587 5037 ft 143 kts 72°
2026-04-24 21:30 18.96125 -75.14581 5062 ft 144 kts 72°
2026-04-24 21:30 18.96445 -75.13584 5083 ft 143 kts 72°
2026-04-24 21:30 18.96762 -75.12590 5110 ft 142 kts 72°
2026-04-24 21:31 18.97078 -75.11601 5132 ft 142 kts 72°
2026-04-24 21:31 18.97395 -75.10614 5157 ft 142 kts 72°
2026-04-24 21:31 18.97714 -75.09623 5180 ft 142 kts 72°
2026-04-24 21:31 18.98031 -75.08633 5199 ft 142 kts 72°
2026-04-24 21:32 18.98344 -75.07657 5229 ft 143 kts 72°
2026-04-24 21:32 18.98661 -75.06663 5248 ft 143 kts 72°
2026-04-24 21:32 18.98981 -75.05664 5276 ft 144 kts 72°
2026-04-24 21:32 18.99301 -75.04663 5301 ft 144 kts 72°
2026-04-24 21:33 18.99624 -75.03659 5328 ft 144 kts 72°
2026-04-24 21:33 18.99838 -75.02994 5341 ft 144 kts 72°
2026-04-24 21:33 19.00268 -75.01651 5377 ft 144 kts 72°
2026-04-24 21:33 19.00589 -75.00649 5402 ft 144 kts 72°
2026-04-24 21:34 19.00910 -74.99645 5427 ft 144 kts 72°
2026-04-24 21:34 19.01229 -74.98642 5449 ft 144 kts 72°
2026-04-24 21:34 19.01546 -74.97655 5474 ft 144 kts 72°
2026-04-24 21:34 19.01868 -74.96644 5499 ft 143 kts 72°
2026-04-24 21:35 19.02184 -74.95658 5517 ft 144 kts 72°
2026-04-24 21:35 19.02507 -74.94653 5518 ft 145 kts 72°
2026-04-24 21:35 19.02835 -74.93636 5519 ft 147 kts 72°
2026-04-24 21:35 19.03167 -74.92614 5518 ft 147 kts 72°
2026-04-24 21:36 19.03500 -74.91587 5520 ft 147 kts 72°
2026-04-24 21:36 19.03834 -74.90562 5518 ft 148 kts 72°
2026-04-24 21:36 19.04169 -74.89536 5521 ft 147 kts 73°
2026-04-24 21:36 19.04503 -74.88513 5521 ft 147 kts 72°
2026-04-24 21:37 19.04837 -74.87488 5521 ft 147 kts 72°
2026-04-24 21:37 19.05171 -74.86464 5520 ft 148 kts 72°
2026-04-24 21:37 19.05504 -74.85437 5519 ft 147 kts 72°
2026-04-24 21:37 19.05834 -74.84417 5521 ft 147 kts 72°
2026-04-24 21:38 19.06164 -74.83400 5521 ft 146 kts 72°
2026-04-24 21:38 19.06495 -74.82383 5519 ft 146 kts 72°
2026-04-24 21:38 19.06822 -74.81379 5521 ft 146 kts 72°
2026-04-24 21:38 19.07156 -74.80361 5520 ft 147 kts 72°
2026-04-24 21:39 19.07490 -74.79341 5521 ft 147 kts 72°
2026-04-24 21:39 19.07825 -74.78320 5518 ft 147 kts 72°
2026-04-24 21:39 19.08162 -74.77298 5522 ft 147 kts 72°
2026-04-24 21:39 19.08500 -74.76272 5521 ft 148 kts 72°
2026-04-24 21:40 19.08839 -74.75246 5522 ft 148 kts 72°
2026-04-24 21:40 19.09177 -74.74218 5523 ft 148 kts 72°
2026-04-24 21:40 19.09516 -74.73188 5520 ft 148 kts 72°
2026-04-24 21:40 19.09853 -74.72161 5520 ft 148 kts 72°
2026-04-24 21:41 19.10193 -74.71135 5519 ft 148 kts 72°
2026-04-24 21:41 19.10534 -74.70109 5521 ft 148 kts 72°
2026-04-24 21:41 19.10875 -74.69086 5519 ft 147 kts 72°
2026-04-24 21:41 19.11215 -74.68068 5520 ft 147 kts 72°
2026-04-24 21:42 19.11551 -74.67063 5520 ft 146 kts 72°
2026-04-24 21:42 19.11894 -74.66047 5520 ft 147 kts 72°
2026-04-24 21:42 19.12236 -74.65033 5522 ft 146 kts 72°
2026-04-24 21:42 19.12577 -74.64019 5521 ft 146 kts 72°
2026-04-24 21:43 19.12915 -74.63005 5522 ft 146 kts 72°
2026-04-24 21:43 19.13253 -74.61989 5519 ft 147 kts 72°
2026-04-24 21:43 19.13595 -74.60968 5520 ft 147 kts 72°
2026-04-24 21:43 19.13939 -74.59947 5521 ft 147 kts 72°
2026-04-24 21:44 19.14283 -74.58922 5522 ft 148 kts 72°
2026-04-24 21:44 19.14622 -74.57899 5521 ft 147 kts 72°
2026-04-24 21:44 19.14961 -74.56878 5520 ft 147 kts 72°
2026-04-24 21:44 19.15299 -74.55854 5521 ft 147 kts 72°
2026-04-24 21:45 19.15521 -74.55177 5520 ft 147 kts 72°
2026-04-24 21:45 19.15859 -74.54159 5520 ft 147 kts 72°
2026-04-24 21:45 19.16195 -74.53141 5519 ft 146 kts 72°
2026-04-24 21:45 19.16641 -74.51795 5521 ft 146 kts 72°
2026-04-24 21:46 19.16869 -74.51106 5521 ft 147 kts 72°
2026-04-24 21:46 19.17207 -74.50088 5516 ft 147 kts 72°
2026-04-24 21:46 19.17544 -74.49083 5519 ft 147 kts 72°
2026-04-24 21:46 19.17886 -74.48061 5519 ft 147 kts 72°
2026-04-24 21:47 19.18228 -74.47039 5522 ft 147 kts 72°
2026-04-24 21:47 19.18569 -74.46016 5519 ft 148 kts 72°
2026-04-24 21:47 19.18912 -74.44990 5516 ft 148 kts 72°
2026-04-24 21:47 19.19254 -74.43963 5517 ft 148 kts 72°
2026-04-24 21:48 19.19596 -74.42939 5514 ft 147 kts 72°
2026-04-24 21:48 19.19935 -74.41920 5518 ft 146 kts 72°
2026-04-24 21:48 19.20272 -74.40902 5522 ft 146 kts 72°
2026-04-24 21:48 19.20609 -74.39885 5521 ft 146 kts 72°
2026-04-24 21:49 19.20946 -74.38872 5521 ft 146 kts 72°
2026-04-24 21:49 19.21276 -74.37880 5519 ft 137 kts 72°
2026-04-24 21:49 19.21581 -74.36968 5519 ft 130 kts 72°
2026-04-24 21:49 19.21877 -74.36083 5520 ft 125 kts 72°
2026-04-24 21:50 19.22167 -74.35222 5519 ft 124 kts 72°
2026-04-24 21:50 19.22455 -74.34373 5524 ft 122 kts 72°
2026-04-24 21:50 19.22740 -74.33528 5519 ft 122 kts 72°
2026-04-24 21:50 19.23024 -74.32687 5520 ft 121 kts 72°
2026-04-24 21:51 19.23308 -74.31845 5522 ft 121 kts 72°
2026-04-24 21:51 19.23587 -74.31018 5518 ft 121 kts 71°
2026-04-24 21:51 19.23864 -74.30183 5518 ft 120 kts 72°
2026-04-24 21:51 19.24144 -74.29347 5521 ft 120 kts 71°
2026-04-24 21:52 19.24424 -74.28512 5518 ft 120 kts 72°
2026-04-24 21:52 19.24705 -74.27681 5523 ft 119 kts 72°
2026-04-24 21:52 19.24995 -74.26827 5526 ft 129 kts 72°
2026-04-24 21:52 19.25306 -74.25899 5529 ft 137 kts 72°
2026-04-24 21:53 19.25630 -74.24931 5525 ft 142 kts 72°
2026-04-24 21:53 19.25963 -74.23939 5525 ft 144 kts 72°
2026-04-24 21:53 19.26303 -74.22931 5537 ft 146 kts 71°
2026-04-24 21:53 19.26645 -74.21915 5536 ft 147 kts 72°
2026-04-24 21:54 19.26988 -74.20897 5531 ft 146 kts 72°
2026-04-24 21:54 19.27324 -74.19894 5534 ft 147 kts 72°
2026-04-24 21:54 19.27663 -74.18870 5535 ft 148 kts 72°
2026-04-24 21:54 19.28003 -74.17841 5531 ft 148 kts 72°
2026-04-24 21:55 19.28345 -74.16813 5537 ft 148 kts 72°
2026-04-24 21:55 19.28684 -74.15786 5533 ft 148 kts 72°
2026-04-24 21:55 19.29022 -74.14755 5540 ft 148 kts 72°
2026-04-24 21:55 19.29360 -74.13726 5537 ft 148 kts 72°
2026-04-24 21:56 19.29694 -74.12708 5533 ft 148 kts 72°
2026-04-24 21:56 19.30033 -74.11678 5538 ft 148 kts 72°
2026-04-24 21:56 19.30370 -74.10645 5534 ft 147 kts 72°
2026-04-24 21:56 19.30705 -74.09621 5536 ft 147 kts 72°
2026-04-24 21:57 19.31037 -74.08598 5532 ft 147 kts 72°
2026-04-24 21:57 19.31370 -74.07572 5533 ft 147 kts 72°
2026-04-24 21:57 19.31705 -74.06547 5534 ft 147 kts 72°
2026-04-24 21:57 19.32042 -74.05521 5537 ft 148 kts 72°
2026-04-24 21:58 19.32377 -74.04494 5536 ft 148 kts 72°
2026-04-24 21:58 19.32712 -74.03466 5533 ft 148 kts 72°
2026-04-24 21:58 19.33048 -74.02437 5535 ft 148 kts 72°
2026-04-24 21:58 19.33385 -74.01405 5537 ft 149 kts 72°
2026-04-24 21:59 19.33722 -74.00370 5530 ft 148 kts 72°
2026-04-24 21:59 19.34056 -73.99343 5534 ft 147 kts 72°
2026-04-24 21:59 19.34386 -73.98316 5528 ft 147 kts 72°
2026-04-24 21:59 19.34716 -73.97291 5530 ft 147 kts 72°
2026-04-24 22:00 19.35042 -73.96282 5536 ft 147 kts 72°
2026-04-24 22:00 19.35373 -73.95259 5532 ft 146 kts 72°
2026-04-24 22:00 19.35704 -73.94237 5532 ft 147 kts 72°
2026-04-24 22:00 19.36031 -73.93212 5532 ft 147 kts 72°
2026-04-24 22:01 19.36359 -73.92188 5528 ft 147 kts 72°
2026-04-24 22:01 19.36689 -73.91159 5532 ft 148 kts 72°
2026-04-24 22:01 19.37022 -73.90125 5533 ft 149 kts 72°
2026-04-24 22:01 19.37356 -73.89089 5535 ft 149 kts 71°
2026-04-24 22:02 19.37690 -73.88050 5535 ft 149 kts 72°
2026-04-24 22:02 19.38023 -73.87010 5527 ft 149 kts 72°
2026-04-24 22:02 19.38356 -73.85971 5529 ft 149 kts 72°
2026-04-24 22:02 19.38688 -73.84932 5529 ft 148 kts 72°
2026-04-24 22:03 19.39002 -73.83942 5527 ft 136 kts 72°
2026-04-24 22:03 19.39294 -73.83029 5525 ft 130 kts 72°
2026-04-24 22:03 19.39575 -73.82141 5522 ft 125 kts 72°
2026-04-24 22:03 19.39851 -73.81279 5521 ft 123 kts 72°
2026-04-24 22:04 19.40124 -73.80426 5523 ft 121 kts 72°
2026-04-24 22:04 19.40397 -73.79582 5520 ft 120 kts 71°
2026-04-24 22:04 19.40667 -73.78742 5522 ft 123 kts 72°
2026-04-24 22:04 19.40960 -73.77848 5526 ft 133 kts 71°
2026-04-24 22:05 19.41268 -73.76897 5527 ft 139 kts 72°
2026-04-24 22:05 19.41588 -73.75908 5531 ft 143 kts 72°
2026-04-24 22:05 19.41910 -73.74914 5534 ft 146 kts 71°
2026-04-24 22:05 19.42238 -73.73893 5531 ft 147 kts 72°
2026-04-24 22:06 19.42570 -73.72868 5537 ft 147 kts 72°
2026-04-24 22:06 19.42900 -73.71842 5534 ft 147 kts 72°
2026-04-24 22:06 19.43228 -73.70813 5538 ft 147 kts 72°
2026-04-24 22:06 19.43558 -73.69785 5532 ft 147 kts 72°
2026-04-24 22:07 19.43888 -73.68756 5538 ft 147 kts 71°
2026-04-24 22:07 19.44219 -73.67727 5531 ft 147 kts 71°
2026-04-24 22:07 19.44546 -73.66700 5532 ft 147 kts 72°
2026-04-24 22:07 19.44876 -73.65675 5537 ft 147 kts 72°
2026-04-24 22:08 19.45204 -73.64652 5537 ft 147 kts 72°
2026-04-24 22:08 19.45535 -73.63624 5536 ft 147 kts 71°
2026-04-24 22:08 19.45867 -73.62598 5537 ft 147 kts 71°
2026-04-24 22:08 19.46197 -73.61573 5538 ft 147 kts 72°
2026-04-24 22:09 19.46528 -73.60546 5535 ft 147 kts 71°
2026-04-24 22:09 19.46858 -73.59519 5538 ft 147 kts 71°
2026-04-24 22:09 19.47184 -73.58508 5533 ft 147 kts 72°
2026-04-24 22:09 19.47515 -73.57481 5532 ft 147 kts 71°
2026-04-24 22:10 19.47844 -73.56455 5532 ft 147 kts 72°
2026-04-24 22:10 19.48173 -73.55432 5536 ft 146 kts 72°
2026-04-24 22:10 19.48499 -73.54414 5536 ft 146 kts 72°
2026-04-24 22:10 19.48824 -73.53399 5533 ft 145 kts 72°
2026-04-24 22:11 19.49152 -73.52386 5534 ft 145 kts 71°
2026-04-24 22:11 19.49478 -73.51376 5533 ft 145 kts 71°
2026-04-24 22:11 19.49804 -73.50363 5531 ft 145 kts 72°
2026-04-24 22:11 19.50129 -73.49353 5534 ft 145 kts 71°
2026-04-24 22:12 19.50454 -73.48341 5534 ft 145 kts 71°
2026-04-24 22:12 19.50780 -73.47326 5527 ft 146 kts 71°
2026-04-24 22:12 19.51108 -73.46308 5535 ft 146 kts 71°
2026-04-24 22:12 19.51438 -73.45289 5536 ft 146 kts 71°
2026-04-24 22:13 19.51766 -73.44271 5532 ft 146 kts 71°
2026-04-24 22:13 19.52094 -73.43252 5531 ft 146 kts 71°
2026-04-24 22:13 19.52423 -73.42231 5526 ft 146 kts 71°
2026-04-24 22:13 19.52748 -73.41226 5534 ft 146 kts 71°
2026-04-24 22:14 19.53075 -73.40211 5529 ft 145 kts 72°
2026-04-24 22:14 19.53404 -73.39198 5524 ft 145 kts 71°
2026-04-24 22:14 19.53731 -73.38188 5524 ft 145 kts 71°
2026-04-24 22:14 19.54059 -73.37176 5533 ft 145 kts 72°
2026-04-24 22:15 19.54388 -73.36168 5533 ft 145 kts 71°
2026-04-24 22:15 19.54718 -73.35157 5534 ft 145 kts 71°
2026-04-24 22:15 19.55050 -73.34142 5534 ft 146 kts 71°
2026-04-24 22:15 19.55382 -73.33128 5532 ft 145 kts 71°
2026-04-24 22:16 19.55712 -73.32115 5535 ft 145 kts 71°
2026-04-24 22:16 19.56044 -73.31103 5534 ft 145 kts 71°
2026-04-24 22:16 19.56374 -73.30091 5531 ft 145 kts 71°
2026-04-24 22:16 19.56699 -73.29091 5527 ft 145 kts 71°
2026-04-24 22:17 19.57028 -73.28076 5536 ft 146 kts 71°
2026-04-24 22:17 19.57357 -73.27060 5532 ft 145 kts 72°
2026-04-24 22:17 19.57688 -73.26045 5530 ft 146 kts 72°
2026-04-24 22:17 19.58021 -73.25031 5529 ft 146 kts 71°
2026-04-24 22:18 19.58354 -73.24018 5530 ft 146 kts 71°
2026-04-24 22:18 19.58685 -73.23003 5526 ft 145 kts 71°
2026-04-24 22:18 19.59017 -73.21990 5531 ft 145 kts 71°
2026-04-24 22:18 19.59346 -73.20980 5529 ft 145 kts 71°
2026-04-24 22:19 19.59680 -73.19965 5526 ft 146 kts 71°
2026-04-24 22:19 19.60014 -73.18950 5529 ft 146 kts 71°
2026-04-24 22:19 19.60348 -73.17934 5531 ft 146 kts 71°
2026-04-24 22:19 19.60684 -73.16921 5531 ft 146 kts 71°
2026-04-24 22:20 19.61017 -73.15910 5531 ft 145 kts 71°
2026-04-24 22:20 19.61351 -73.14898 5530 ft 145 kts 71°
2026-04-24 22:20 19.61684 -73.13884 5531 ft 146 kts 71°
2026-04-24 22:20 19.62020 -73.12869 5532 ft 146 kts 71°
2026-04-24 22:21 19.62359 -73.11853 5532 ft 146 kts 71°
2026-04-24 22:21 19.62699 -73.10837 5534 ft 146 kts 71°
2026-04-24 22:21 19.63036 -73.09825 5529 ft 145 kts 71°
2026-04-24 22:21 19.63373 -73.08815 5530 ft 145 kts 71°
2026-04-24 22:22 19.63707 -73.07806 5534 ft 145 kts 71°
2026-04-24 22:22 19.63878 -73.06751 5535 ft 146 kts 86°
2026-04-24 22:22 19.63968 -73.05686 5537 ft 147 kts 86°
2026-04-24 22:22 19.64058 -73.04601 5535 ft 148 kts 86°
2026-04-24 22:23 19.64147 -73.03515 5538 ft 148 kts 86°
2026-04-24 22:23 19.64241 -73.02430 5535 ft 147 kts 86°
2026-04-24 22:23 19.64332 -73.01357 5532 ft 146 kts 86°
2026-04-24 22:23 19.64427 -73.00281 5531 ft 146 kts 86°
2026-04-24 22:24 19.64521 -72.99209 5533 ft 146 kts 86°
2026-04-24 22:24 19.64613 -72.98136 5532 ft 146 kts 86°
2026-04-24 22:24 19.64702 -72.97060 5532 ft 147 kts 86°
2026-04-24 22:24 19.64794 -72.95978 5536 ft 147 kts 86°
2026-04-24 22:25 19.64887 -72.94895 5537 ft 147 kts 86°
2026-04-24 22:25 19.64980 -72.93814 5536 ft 147 kts 86°
2026-04-24 22:25 19.65076 -72.92728 5538 ft 147 kts 86°
2026-04-24 22:25 19.65172 -72.91647 5537 ft 147 kts 86°
2026-04-24 22:26 19.65267 -72.90566 5537 ft 147 kts 86°
2026-04-24 22:26 19.65359 -72.89501 5539 ft 147 kts 86°
2026-04-24 22:26 19.65450 -72.88421 5537 ft 147 kts 86°
2026-04-24 22:26 19.65540 -72.87340 5535 ft 147 kts 86°
2026-04-24 22:27 19.65631 -72.86258 5542 ft 147 kts 86°
2026-04-24 22:27 19.65727 -72.85175 5540 ft 148 kts 86°
2026-04-24 22:27 19.65822 -72.84099 5535 ft 145 kts 85°
2026-04-24 22:27 19.65913 -72.83029 5535 ft 145 kts 86°
2026-04-24 22:28 19.66005 -72.81959 5543 ft 146 kts 86°
2026-04-24 22:28 19.66097 -72.80881 5546 ft 147 kts 86°
2026-04-24 22:28 19.66185 -72.79815 5546 ft 143 kts 86°
2026-04-24 22:28 19.66272 -72.78754 5538 ft 144 kts 86°
2026-04-24 22:29 19.66443 -72.76603 5551 ft 147 kts 86°
2026-04-24 22:29 19.66531 -72.75524 5545 ft 147 kts 86°
2026-04-24 22:29 19.66621 -72.74450 5549 ft 146 kts 85°
2026-04-24 22:30 19.66712 -72.73383 5547 ft 145 kts 85°
2026-04-24 22:30 19.66801 -72.72341 5552 ft 143 kts 86°
2026-04-24 22:30 19.66890 -72.71285 5547 ft 143 kts 86°
2026-04-24 22:30 19.66980 -72.70230 5551 ft 144 kts 86°
2026-04-24 22:31 19.67069 -72.69173 5550 ft 144 kts 86°
2026-04-24 22:31 19.67157 -72.68115 5551 ft 142 kts 86°
2026-04-24 22:31 19.67244 -72.67065 5553 ft 144 kts 86°
2026-04-24 22:31 19.67331 -72.66007 5553 ft 144 kts 86°
2026-04-24 22:32 19.67417 -72.64946 5553 ft 144 kts 86°
2026-04-24 22:32 19.67504 -72.63885 5555 ft 144 kts 86°
2026-04-24 22:32 19.67591 -72.62841 5554 ft 144 kts 85°
2026-04-24 22:32 19.67674 -72.61783 5554 ft 144 kts 85°
2026-04-24 22:33 19.67756 -72.60724 5550 ft 144 kts 86°
2026-04-24 22:33 19.67838 -72.59662 5553 ft 145 kts 86°
2026-04-24 22:33 19.67920 -72.58595 5555 ft 145 kts 86°
2026-04-24 22:33 19.68001 -72.57534 5555 ft 144 kts 86°
2026-04-24 22:34 19.68055 -72.56834 5556 ft 144 kts 86°
2026-04-24 22:34 19.68137 -72.55772 5556 ft 144 kts 86°
2026-04-24 22:34 19.68218 -72.54713 5556 ft 144 kts 86°
2026-04-24 22:34 19.68297 -72.53652 5558 ft 144 kts 86°
2026-04-24 22:35 19.68377 -72.52594 5557 ft 143 kts 86°
2026-04-24 22:35 19.68455 -72.51538 5554 ft 143 kts 86°
2026-04-24 22:35 19.68532 -72.50490 5554 ft 143 kts 86°
2026-04-24 22:35 19.68607 -72.49432 5503 ft 146 kts 86°
2026-04-24 22:36 19.68678 -72.48374 5357 ft 142 kts 86°
2026-04-24 22:36 19.68748 -72.47335 5213 ft 140 kts 86°
2026-04-24 22:36 19.68817 -72.46311 5064 ft 138 kts 86°
2026-04-24 22:36 19.68885 -72.45299 4919 ft 137 kts 86°
2026-04-24 22:37 19.68951 -72.44298 4773 ft 136 kts 86°
2026-04-24 22:37 19.69013 -72.43315 4630 ft 135 kts 86°
2026-04-24 22:37 19.69074 -72.42325 4481 ft 134 kts 86°
2026-04-24 22:37 19.69132 -72.41341 4331 ft 133 kts 86°
2026-04-24 22:38 19.69186 -72.40364 4178 ft 132 kts 86°
2026-04-24 22:38 19.69240 -72.39391 4034 ft 132 kts 86°
2026-04-24 22:38 19.69291 -72.38422 3888 ft 131 kts 86°
2026-04-24 22:38 19.69342 -72.37459 3737 ft 130 kts 86°
2026-04-24 22:39 19.69387 -72.36507 3590 ft 129 kts 86°
2026-04-24 22:39 19.69433 -72.35562 3446 ft 128 kts 86°
2026-04-24 22:39 19.69476 -72.34626 3301 ft 125 kts 85°
2026-04-24 22:39 19.69513 -72.33693 3153 ft 127 kts 86°
2026-04-24 22:40 19.69546 -72.32750 3011 ft 129 kts 86°
2026-04-24 22:40 19.69579 -72.31799 2858 ft 128 kts 86°
2026-04-24 22:40 19.69611 -72.30872 2715 ft 126 kts 87°
2026-04-24 22:40 19.69641 -72.29963 2568 ft 121 kts 87°
2026-04-24 22:41 19.69670 -72.29077 2417 ft 119 kts 86°
2026-04-24 22:41 19.69700 -72.28227 2258 ft 110 kts 87°
2026-04-24 22:41 19.69738 -72.27438 2115 ft 105 kts 86°
2026-04-24 22:41 19.69766 -72.26656 1906 ft 108 kts 89°
2026-04-24 22:42 19.69758 -72.25898 1708 ft 94 kts 87°
2026-04-24 22:42 19.69790 -72.25290 1580 ft 83 kts 85°
2026-04-24 22:42 19.69799 -72.24906 1445 ft 86 kts 85°
2026-04-24 22:42 19.69841 -72.24338 1225 ft 89 kts 82°
2026-04-24 22:43 19.69941 -72.23718 1022 ft 81 kts 72°
2026-04-24 22:43 19.70132 -72.23177 832 ft 77 kts 58°
2026-04-24 22:43 19.70429 -72.22697 682 ft 78 kts 54°
2026-04-24 22:43 19.70715 -72.22234 545 ft 76 kts 54°
2026-04-24 22:44 19.70995 -72.21757 414 ft 77 kts 53°
2026-04-24 22:44 19.71294 -72.21305 299 ft 75 kts 48°
2026-04-24 22:44 19.71640 -72.20901 125 ft 72 kts 38°
2026-04-24 22:44 19.72009 -72.20589 5 ft 61 kts 39°
2026-04-24 22:45 19.72281 -72.20343 -1 ft 48 kts 40°
2026-04-24 22:45 19.72525 -72.20130 1 ft 37 kts 32°
2026-04-24 22:45 19.72699 -72.19982 2 ft 39 kts 40°
2026-04-24 22:45 19.72958 -72.19751 3 ft 45 kts 34°
2026-04-24 22:46 19.73207 -72.19538 2 ft 53 kts 43°
2026-04-24 22:46 19.73378 -72.19496 2 ft 25 kts 345°
2026-04-24 22:46 19.73544 -72.19451 3 ft 23 kts 41°
2026-04-24 22:46 19.73581 -72.19466 3 ft 0 kts 310°
2026-04-24 22:47 19.73586 -72.19473 3 ft 0 kts 307°
2026-04-24 22:47 19.73587 -72.19473 3 ft 0 kts 307°
2026-04-24 22:48 19.73586 -72.19473 3 ft 0 kts 307°
2026-04-24 22:48 19.73587 -72.19473 3 ft 0 kts 307°
2026-04-24 22:49 19.73586 -72.19473 3 ft 0 kts 307°
2026-04-24 22:50 19.73587 -72.19473 3 ft 0 kts 307°
2026-04-24 22:50 19.73586 -72.19473 3 ft 0 kts 307°
2026-04-24 22:51 19.73587 -72.19473 3 ft 0 kts 307°